Location: Flensburg
(54.6357°N, 9.5142°E)
Time: 10:34:21
(UTC+01:00)

ISS - Pass Details

Date: 13 November 2017
Orbit: 402 x 407 km, 51.6° (Epoch: 24 November)

Event Time Altitude Azimuth Distance (km) Brightness Sun altitude
Exits shadow 06:35:11 11° 249° (WSW) 1,389 -1.6 -10.5°
Maximum altitude 06:37:02 16° 213° (SSW) 1,138 -1.7 -10.3°
Drops below altitude 10° 06:39:09 10° 172° (S) 1,452 -0.7 -10.0°
Sets 06:41:44 0° 150° (SSE) 2,308 0.8 -9.6°
